Weather History for Tahlequah, OK

Change the Weather History Date:

Wednesday, December 5, 2012

  Actual Average (KMKO) Record (KMKO)
Temperature  
Mean Temperature 45 °F -  
Max Temperature 60 °F 52 °F 75 °F (1998)
Min Temperature 30 °F 33 °F 19 °F (2005)
Degree Days  
Heating Degree Days 20    
Moisture  
Dew Point 32 °F    
Average Humidity 64    
Maximum Humidity 100    
Minimum Humidity 29    
Precipitation  
Precipitation 0.00 in - - ()
Sea Level Pressure  
Sea Level Pressure 30.22 in    
Wind  
Wind Speed 2 mph (SE)    
Max Wind Speed 12 mph    
Max Gust Speed 16 mph    
Visibility 10 miles    
Events      
Averages and records for this station are not official NWS values.
T = Trace of Precipitation, MM = Missing Value Source: NWS Daily Summary

Daily Weather History Graph

Daily Weather History Graph

Search for Another Location

Airport:

Trip Planner

Search our weather history database for the weather conditions in past years. The results will help you decide how hot, cold, wet, or windy it might be!

Date:

Astronomy

Dec. 05, 2012 Rise Set
Actual Time 7:15 AM CST 5:05 PM CST
Civil Twilight 6:47 AM CST 5:34 PM CST
Nautical Twilight 6:15 AM CST 6:05 PM CST
Astronomical Twilight 5:44 AM CST 6:36 PM CST
Moon 11:46 PM CST (12/5) 11:48 AM CST (12/5)
Length of Visible Light 10h 46m
Length of Day
9h 49m
Waning Gibbous, 59% of the Moon is Illuminated
Dec 5
Waning Gibbous
Dec 6
Last Quarter
Dec 13
New
Dec 19
First Quarter
Dec 28
Full

Hourly Weather History & Observations

Time (CST) Temp. Windchill Dew Point Humidity Pressure Visibility Wind Dir Wind Speed Gust Speed Precip Events Conditions
12:15 AM 35.6 °F - 32.0 °F 87% 30.32 in 10.0 mi Calm Calm - N/A   Clear
12:35 AM 33.8 °F - 32.0 °F 93% 30.31 in 10.0 mi Calm Calm - N/A   Clear
12:55 AM 33.8 °F - 32.0 °F 93% 30.32 in 10.0 mi Calm Calm - N/A   Clear
1:15 AM 33.8 °F - 32.0 °F 93% 30.31 in 10.0 mi Calm Calm - N/A   Clear
1:35 AM 32.0 °F - 32.0 °F 100% 30.32 in 10.0 mi Calm Calm - N/A   Clear
1:55 AM 33.8 °F - 32.0 °F 93% 30.31 in 10.0 mi Calm Calm - N/A   Clear
2:15 AM 32.0 °F - 30.2 °F 93% 30.32 in 10.0 mi Calm Calm - N/A   Clear
2:35 AM 32.0 °F - 32.0 °F 100% 30.33 in 10.0 mi Calm Calm - N/A   Clear
2:55 AM 32.0 °F - 32.0 °F 100% 30.33 in 10.0 mi Calm Calm - N/A   Clear
3:15 AM 32.0 °F - 32.0 °F 100% 30.33 in 10.0 mi Calm Calm - N/A   Clear
3:35 AM 32.0 °F - 32.0 °F 100% 30.33 in 10.0 mi Calm Calm - N/A   Clear
3:55 AM 32.0 °F - 32.0 °F 100% 30.32 in 10.0 mi Calm Calm - N/A   Clear
4:15 AM 32.0 °F - 30.2 °F 93% 30.32 in 10.0 mi Calm Calm - N/A   Clear
4:35 AM 30.2 °F - 30.2 °F 100% 30.32 in 10.0 mi Calm Calm - N/A   Clear
4:55 AM 30.2 °F - 28.4 °F 93% 30.32 in 10.0 mi Calm Calm - N/A   Clear
5:15 AM 30.2 °F - 30.2 °F 100% 30.32 in 10.0 mi Calm Calm - N/A   Clear
5:35 AM 30.2 °F 26.7 °F 30.2 °F 100% 30.32 in 10.0 mi NNE 3.5 mph - N/A   Clear
5:55 AM 32.0 °F 28.7 °F 32.0 °F 100% 30.32 in 10.0 mi NNE 3.5 mph - N/A   Clear
6:15 AM 33.8 °F - 32.0 °F 93% 30.32 in 10.0 mi Calm Calm - N/A   Clear
6:35 AM 33.8 °F 30.8 °F 32.0 °F 93% 30.32 in 10.0 mi NNE 3.5 mph - N/A   Clear
6:55 AM 32.0 °F - 32.0 °F 100% 30.32 in 10.0 mi Calm Calm - N/A   Clear
8:55 AM 42.8 °F 40.1 °F 35.6 °F 76% 30.32 in 10.0 mi ESE 4.6 mph - N/A   Clear
9:15 AM 44.6 °F 39.7 °F 35.6 °F 71% 30.32 in 10.0 mi East 9.2 mph - N/A   Clear
9:35 AM 46.4 °F 43.5 °F 35.6 °F 66% 30.33 in 10.0 mi East 5.8 mph - N/A   Clear
9:55 AM 48.2 °F - 33.8 °F 58% 30.33 in 10.0 mi ESE 3.5 mph - N/A   Clear
10:15 AM 50.0 °F - 33.8 °F 54% 30.33 in 10.0 mi ESE 3.5 mph - N/A   Clear
10:35 AM 51.8 °F - 33.8 °F 50% 30.32 in 10.0 mi Calm Calm - N/A   Clear
10:55 AM 53.6 °F - 32.0 °F 44% 30.31 in 10.0 mi SE 4.6 mph - N/A   Clear
11:15 AM 53.6 °F - 32.0 °F 44% 30.30 in 10.0 mi SE 8.1 mph - N/A   Clear
11:55 AM 57.2 °F - 32.0 °F 38% 30.27 in 10.0 mi SSE 5.8 mph - N/A   Clear
12:15 PM 59.0 °F - 30.2 °F 34% 30.25 in 10.0 mi SSE 11.5 mph 16.1 mph N/A   Clear
12:55 PM 60.8 °F - 30.2 °F 31% 30.23 in 10.0 mi SSE 8.1 mph - N/A   Clear
1:15 PM 60.8 °F - 30.2 °F 31% 30.22 in 10.0 mi SSE 8.1 mph - N/A   Clear
1:35 PM 60.8 °F - 30.2 °F 31% 30.21 in 10.0 mi SE 5.8 mph - N/A   Clear
1:55 PM 60.8 °F - 30.2 °F 31% 30.20 in 10.0 mi SSE 8.1 mph - N/A   Clear
2:15 PM 60.8 °F - 30.2 °F 31% 30.19 in 10.0 mi SSE 5.8 mph - N/A   Clear
2:35 PM 59.0 °F - 28.4 °F 31% 30.18 in 10.0 mi SSE 5.8 mph - N/A   Clear
2:55 PM 60.8 °F - 28.4 °F 29% 30.18 in 10.0 mi SSE 8.1 mph - N/A   Clear
3:15 PM 60.8 °F - 30.2 °F 31% 30.17 in 10.0 mi SE 4.6 mph - N/A   Clear
3:35 PM 59.0 °F - 30.2 °F 34% 30.17 in 10.0 mi Calm Calm - N/A   Clear
3:55 PM 57.2 °F - 30.2 °F 36% 30.17 in 10.0 mi SSE 3.5 mph - N/A   Clear
4:15 PM 55.4 °F - 30.2 °F 38% 30.17 in 10.0 mi SSE 3.5 mph - N/A   Clear
4:35 PM 55.4 °F - 30.2 °F 38% 30.16 in 10.0 mi SSE 3.5 mph - N/A   Clear
4:55 PM 53.6 °F - 30.2 °F 41% 30.16 in 10.0 mi SSE 3.5 mph - N/A   Clear
5:15 PM 53.6 °F - 30.2 °F 41% 30.15 in 10.0 mi SSE 4.6 mph - N/A   Clear
5:35 PM 51.8 °F - 30.2 °F 44% 30.15 in 10.0 mi SE 4.6 mph - N/A   Clear
5:55 PM 51.8 °F - 32.0 °F 47% 30.14 in 10.0 mi SE 4.6 mph - N/A   Clear
6:15 PM 50.0 °F - 32.0 °F 50% 30.12 in 10.0 mi SE 5.8 mph - N/A   Clear
6:35 PM 50.0 °F - 32.0 °F 50% 30.11 in 10.0 mi ESE 5.8 mph - N/A   Clear
6:55 PM 50.0 °F - 32.0 °F 50% 30.12 in 10.0 mi SE 5.8 mph - N/A   Clear
7:15 PM 50.0 °F - 32.0 °F 50% 30.12 in 10.0 mi SE 4.6 mph - N/A   Clear
7:35 PM 50.0 °F - 32.0 °F 50% 30.11 in 10.0 mi SE 4.6 mph - N/A   Clear
7:55 PM 50.0 °F - 33.8 °F 54% 30.11 in 10.0 mi SE 4.6 mph - N/A   Clear
8:15 PM 48.2 °F - 33.8 °F 58% 30.11 in 10.0 mi SE 3.5 mph - N/A   Clear
8:35 PM 46.4 °F 45.2 °F 33.8 °F 62% 30.11 in 10.0 mi SE 3.5 mph - N/A   Clear
8:55 PM 48.2 °F - 33.8 °F 58% 30.10 in 10.0 mi ESE 6.9 mph - N/A   Clear
9:15 PM 48.2 °F - 33.8 °F 58% 30.09 in 10.0 mi SE 8.1 mph - N/A   Clear
9:35 PM 48.2 °F - 33.8 °F 58% 30.09 in 10.0 mi SE 4.6 mph - N/A   Clear
9:55 PM 48.2 °F - 33.8 °F 58% 30.08 in 10.0 mi SE 6.9 mph - N/A   Clear
10:15 PM 48.2 °F - 33.8 °F 58% 30.08 in 10.0 mi SE 5.8 mph - N/A   Clear
10:35 PM 46.4 °F 43.5 °F 33.8 °F 62% 30.08 in 10.0 mi SE 5.8 mph - N/A   Clear
10:55 PM 46.4 °F 43.5 °F 33.8 °F 62% 30.07 in 10.0 mi SE 5.8 mph - N/A   Clear
11:15 PM 46.4 °F 43.5 °F 33.8 °F 62% 30.08 in 10.0 mi SE 5.8 mph - N/A   Clear
11:35 PM 44.6 °F 42.2 °F 33.8 °F 66% 30.07 in 10.0 mi ESE 4.6 mph - N/A   Clear
11:55 PM 44.6 °F 42.2 °F 33.8 °F 66% 30.07 in 10.0 mi ESE 4.6 mph - N/A   Clear